Regional Weather Roundup
Issued by NWS Kansas City/Pleasant Hill, MO

Home | Current Version | Previous Version | Text Only | Print | Product List | Glossary On
Versions: 1 2 3 4 5 6 7 8 9 10 11 12 13 14 15 16 17 18 19 20 21 22 23 24 25 26 27 28 29 30 31 32 33 34 35 36 37 38 39 40 41 42 43 44 45 46 47 48 49 50
000
ASUS43 KEAX 102110
RWREAX

WEATHER ROUNDUP FOR EASTERN KANSAS AND NORTHWEST MISSOURI
NATIONAL WEATHER SERVICE KANSAS CITY/PLEASANT HILL MO
300 PM CST WED FEB 10 2016

KSZ040-057-103>105-MOZ028-029-037-043-102200-
...KANSAS CITY METROPOLITAN AREA...

CITY           SKY/WX    TMP DP  RH WIND       PRES   REMARKS
K.C. INTL      MOSUNNY   46  21  37 S8        29.90F
K.C. DOWNTOWN  SUNNY     48  20  32 SW7       29.91F
LEES SUMMIT    SUNNY     46  19  34 S12       29.91F
OLATHE - IXD   SUNNY     48  22  35 S10       29.90F
OLATHE - OJC   SUNNY     46  20  35 SW10      29.90F
LAWRENCE       SUNNY     51  22  31 SW14      29.89F

$$

MOZ001>008-011>017-020>025-030>033-038>040-044>046-053-054-102200-
...NORTHERN AND CENTRAL MISSOURI...

CITY           SKY/WX    TMP DP  RH WIND       PRES   REMARKS
ST. JOSEPH     SUNNY     46  19  34 S5        29.91F
MOSBY          CLEAR     43  18  36 SW8       29.93S
WARRENSBURG    SUNNY     43  18  36 S10       29.95F
WHITEMAN AFB   MOSUNNY   42  18  37 SW15      29.94F WCI  34
CLINTON          N/A     45  21  39 S10G16    29.96F
SEDALIA        SUNNY     42  16  34 S9G22     29.97F
WARSAW         NOT AVBL
CHILLICOTHE      N/A     33  21  61 E10       30.00S WCI  25
KIRKSVILLE     CLOUDY    21  16  81 SE8       30.05R WCI  11

$$

MOZ041-047>049-056>058-063>065-088>090-097-102200-
...EASTERN AND SOUTHERN MISSOURI...

CITY           SKY/WX    TMP DP  RH WIND       PRES   REMARKS
ST. LOUIS INTL LGT SNOW  22  15  75 SW5       30.12S WCI  16
SPIRIT OF STL  FLURRIES  22  16  78 SW3       30.12S
COLUMBIA       CLOUDY    25  20  81 E8        30.03F WCI  16
JEFFERSON CITY CLOUDY    27  20  75 E12       30.06F WCI  17
ROLLA          MOSUNNY   27  20  75 SE8       30.02F WCI  19
OSAGE BEACH    SUNNY     43  16  33 S8G16     29.99F
SPRINGFIELD    SUNNY     49  18  29 SW16      29.97F
BRANSON        SUNNY     50  19  29 NW8       30.01F
JOPLIN         SUNNY     50  21  32 SW16      29.96F
WEST PLAINS    SUNNY     40  13  33 S9        30.04F WCI  34

$$

IAZ060-094-KSZ022-034>040-054-083-096-NEZ052-066-093-102200-
...KANSAS...SOUTHEAST NEBRASKA AND IOWA...

CITY           SKY/WX    TMP DP  RH WIND       PRES   REMARKS
TOPEKA         SUNNY     55  25  31 SW10      29.87F
MANHATTAN      SUNNY     60  29  30 SW12      29.86F
EMPORIA        SUNNY     61  26  26 SW14G22   29.88F
CHANUTE        SUNNY     54  24  31 S15       29.93F
WICHITA        SUNNY     64  31  28 SW14      29.90F
OMAHA          MOSUNNY   37  23  56 SE8       29.92R WCI  31
LINCOLN        SUNNY     41  28  60 NE6       29.89F
FALLS CITY     SUNNY     51  27  39 VRB3      29.87F
LAMONI         CLOUDY    26  20  77 E8        29.97S WCI  18
DES MOINES     CLOUDY    19  12  74 E10       30.03S WCI   7

$$




USA.gov is the U.S. government's official web portal to all federal, state and local government web resources and services.